#timestamp,LO_Frequency,Hit 
1499835615.0,286047075.2,N
1499835616.0,286047075.2,N
1499835635.8,286047075.8,N
1499835655.6,286047075.5,N
1499835675.4,286047075.7,N
1499835695.3,286047076.4,N
1499835715.1,286047074.2,N
1499835735.8,286047071.9,N
1499835755.7,286047074.4,N
1499835775.5,286047073.8,N
1499835795.3,286047075.3,N
1499835815.2,286047077.8,N
1499835835.9,286047077.8,N
1499835855.7,286047077.5,N
1499835875.6,286047077.8,N
1499835895.4,286047075.2,N
1499835915.2,286047073.6,N
1499835935.1,286047073.6,N
1499835936.0,286047073.6,N
1499835955.8,286047075.2,N
1499835975.6,286047076.0,N
1499835995.5,286047076.0,N
1499836015.3,286047074.7,N
1499836035.1,286047072.2,N
1499836055.8,286047071.7,N
1499836075.7,286047071.7,N
1499836095.5,286047074.8,N
1499836115.3,286047074.1,N
1499836135.2,286047075.2,N
1499836155.9,286047074.7,N
1499836175.7,286047073.8,N
1499836195.6,286047077.7,N
1499836215.4,286047074.9,N
1499836235.2,286047075.6,N
1499836255.1,286047073.3,N
1499836256.0,286047073.3,N
1499836275.8,286047078.0,N
1499836295.6,286047077.7,N
1499836315.5,286047075.0,N
1499836335.3,286047075.8,N
1499836355.1,286047073.4,N
1499836375.8,286047076.1,N
1499836395.7,286047075.4,N
1499836415.5,286047075.5,N
1499836435.3,286047075.6,N
1499836455.2,286047076.4,N
1499836475.0,286047073.9,N
1499836475.9,286047073.9,N
1499836495.7,286047075.5,N
1499836515.6,286047074.2,N
1499836535.4,286047071.8,N
1499836555.2,286047074.7,N
1499836575.1,286047074.0,N
1499836576.0,286047074.0,N
1499836595.8,286047073.4,N
1499836615.6,286047074.0,N
1499836635.5,286047071.9,N
1499836655.3,286047076.3,N
1499836675.1,286047073.9,N
1499836695.9,286047075.7,N
1499836715.7,286047072.0,N
1499836735.5,286047072.3,N
1499836755.4,286047074.8,N
1499836775.2,286047074.5,N
1499836795.0,286047075.8,N
1499836795.9,286047075.8,N
1499836815.8,286047073.5,N
1499836835.6,286047074.9,N
1499836855.4,286047075.3,N
1499836875.2,286047075.6,N
1499836895.9,286047075.1,N
1499836915.7,286047075.2,N
1499836935.6,286047075.0,N
1499836955.4,286047075.3,N
1499836975.2,286047074.9,N
1499836995.1,286047075.4,N
1499836996.0,286047075.4,N
1499837015.8,286047076.1,N
1499837035.6,286047075.7,N
1499837055.5,286047075.2,N
1499837075.3,286047077.8,N
1499837095.1,286047073.3,N
1499837115.8,286047073.2,N
1499837135.7,286047073.7,N
1499837155.5,286047075.3,N
1499837175.3,286047076.1,N
1499837195.2,286047075.2,N
1499837215.0,286047076.1,N
1499837215.9,286047076.1,N
1499837235.7,286047074.2,N
1499837255.6,286047070.1,N
1499837275.4,286047073.2,N
1499837295.2,286047073.0,N
1499837315.1,286047072.0,N
1499837316.0,286047072.0,N
1499837335.8,286047072.3,N
1499837355.6,286047074.7,N
1499837375.5,286047073.3,N
1499837395.3,286047075.0,N
1499837415.1,286047074.6,N
1499837435.9,286047072.9,N
1499837455.7,286047071.9,N
1499837475.5,286047072.0,N
1499837495.4,286047071.8,N
1499837515.2,286047070.5,N
1499837535.0,286047068.8,N
1499837535.9,286047068.8,N
1499837555.8,286047071.4,N
1499837575.6,286047070.2,N
1499837595.4,286047072.7,N
1499837615.2,286047071.2,N
1499837635.1,286047067.7,N
1499837636.0,286047067.7,N
1499837655.8,286047070.7,N
1499837675.6,286047071.2,N
1499837695.5,286047069.8,N
1499837715.3,286047071.0,N
1499837735.1,286047072.5,N
1499837755.9,286047071.4,N
1499837775.7,286047073.2,N
1499837795.5,286047070.3,N
1499837815.4,286047069.5,N
1499837835.2,286047068.6,N
1499837855.0,286047066.9,N
1499837855.9,286047066.9,N
1499837875.8,286047067.3,N
1499837895.6,286047069.2,N
1499837915.4,286047069.2,N
1499837935.3,286047065.9,N
1499837955.1,286047068.3,N
1499837956.0,286047068.3,N
1499837975.8,286047068.8,N
1499837995.7,286047071.1,N
1499838015.5,286047068.7,N
1499838035.3,286047067.0,N
1499838055.2,286047066.3,N
1499838075.9,286047065.9,N
1499838095.7,286047064.3,N
1499838115.5,286047064.7,N
1499838135.4,286047066.6,N
1499838155.2,286047065.0,N
1499838175.0,286047065.5,N
1499838175.9,286047065.5,N
1499838195.8,286047066.3,N
1499838215.6,286047064.0,N
1499838235.4,286047062.9,N
1499838255.3,286047064.5,N
1499838275.1,286047066.0,N
1499838295.8,286047066.8,N
1499838315.7,286047062.2,N
1499838335.5,286047065.6,N
1499838355.3,286047067.1,N
1499838375.2,286047068.2,N
1499838395.9,286047064.9,N
1499838415.7,286047064.2,N
1499838435.6,286047062.5,N
1499838455.4,286047063.0,N
1499838475.2,286047062.6,N
1499838495.1,286047065.2,N
1499838496.0,286047065.2,N
1499838515.8,286047065.2,N
1499838535.6,286047062.4,N
1499838555.4,286047062.9,N
1499838575.3,286047059.3,N
1499838595.1,286047061.9,N
1499838615.8,286047061.5,N
1499838635.7,286047059.6,N
1499838655.5,286047059.6,N
1499838675.3,286047061.6,N
1499838695.2,286047062.7,N
1499838715.9,286047061.0,N
1499838735.7,286047061.3,N
1499838755.6,286047060.0,N
1499838775.4,286047056.7,N
1499838795.2,286047055.6,N
1499838815.1,286047055.6,N
1499838816.0,286047055.6,N
1499838835.8,286047054.7,N
1499838855.6,286047056.7,N
1499838875.5,286047058.4,N
1499838895.3,286047058.8,N
1499838915.1,286047054.3,N
1499838935.8,286047055.8,N
1499838955.7,286047056.7,N
1499838975.5,286047058.8,N
1499838995.3,286047054.1,N
1499839015.2,286047053.1,N
1499839035.0,286047049.5,N
1499839035.9,286047049.5,N
1499839055.7,286047047.8,N
1499839075.6,286047047.7,N
1499839095.4,286047048.9,N
1499839115.2,286047050.6,N
1499839135.1,286047049.6,N
1499839136.0,286047049.6,N
1499839155.8,286047049.5,N
1499839175.6,286047051.7,N
1499839195.5,286047051.3,N
